Terminal Aerodrome Forecast
Issued by NWS

Home | Current Version | Previous Version | Text Only | Print | Product List | Glossary On
Versions: 1 2 3 4 5 6 7 8 9 10 11 12 13
000
FTUS42 TJSJ 152300
TAFIST
TAF
TIST 152336Z 1600/1624 09008KT P6SM VCSH SCT025
     FM161300 13012KT P6SM FEW030 SCT050
     FM162300 09008KT P6SM SCT025=

USA.gov is the U.S. government's official web portal to all federal, state and local government web resources and services.